User: anonymous   Login
Location: Starry Hill Observatory
(46.8582°N, 122.3590°W)
Time: 14:00:55
(UTC-07:00)
Language:

Cosmos 1300 Rocket - Orbit

View from above orbital plane
View from above orbital plane
View from above satellite
View from above satellite

Ground track
Ground track

The orbit data is extracted from the following two-line orbital elements,

1 12786U 81082B   17113.87959826 +.00000178 +00000-0 +18134-4 0  9997
2 12786 082.4917 018.8918 0019115 075.5570 284.7765 14.84677896905652
Epoch (UTC): 23 April 2017 21:06:37
Eccentricity: 0.0019115
inclination: 82.4917°
perigee height: 601 km
apogee height: 628 km
right ascension of ascending node: 18.8918°
argument of perigee: 75.5570°
revolutions per day: 14.84677896
mean anomaly at epoch: 284.7765°
orbit number at epoch: 90565

The dashed part of the orbit path shows where the satellite is in the earth's shadow,  

DLR